EW3791 Weather Reports


Display with metric or nautical units.
time (UTC)temp
F
wind
direction
speed
MPH
gust
MPH
rain 1hr
in
rain 24hr
in
rain mn
in
humidity
%
barometer
mb
20260904171511 87 133 4.0 9.0 0.00 0.02 0.02 80 1014.3
20260904170057 86 141 4.0 11.0 0.00 0.02 0.02 80 1014.3
20260904164530 86 122 6.0 11.0 0.00 0.02 0.02 82 1014.1
20260904163113 86 130 7.0 12.0 0.00 0.02 0.02 85 1014.2
20260904161542 85 89 5.0 8.0 0.00 0.02 0.02 88 1014.2
20260904160019 84 91 3.0 8.0 0.00 0.02 0.02 89 1014.0
20260904154557 84 87 3.0 8.0 0.00 0.03 0.02 90 1014.3
20260904153023 83 79 1.0 5.0 0.00 0.03 0.02 90 1014.0
20260904151606 83 68 1.0 5.0 0.00 0.03 0.02 92 1013.7
20260904150042 83 53 2.0 5.0 0.00 0.03 0.02 91 1013.8
20260904144505 83 65 2.0 5.0 0.00 0.04 0.02 91 1013.6
20260904143047 83 74 2.0 5.0 0.00 0.04 0.02 91 1013.6
20260904141526 83 63 3.0 6.0 0.00 0.04 0.02 90 1013.5
20260904140108 83 55 2.0 7.0 0.00 0.04 0.02 90 1013.5
20260904134532 83 83 1.0 3.0 0.00 0.04 0.02 93 1013.4
20260904133007 81 90 0.0 0.0 0.00 0.04 0.02 93 1013.2
20260904131556 81 90 0.0 3.0 0.00 0.04 0.02 94 1013.2
20260904130045 81 71 0.0 3.0 0.00 0.04 0.02 94 1013.1
20260904124502 81 79 1.0 4.0 0.00 0.04 0.02 94 1013.0
20260904123043 80 83 0.0 4.0 0.00 0.04 0.02 94 1012.6
20260904121513 80 122 0.0 0.0 0.00 0.04 0.02 94 1012.4
20260904114528 80 125 0.0 0.0 0.00 0.04 0.02 94 1012.3
20260904113002 80 125 0.0 0.0 0.00 0.04 0.02 94 1012.3
20260904111542 80 125 0.0 0.0 0.00 0.04 0.02 93 1012.4
20260904110015 80 143 0.0 0.0 0.00 0.04 0.02 93 1012.4
20260904104555 80 217 0.0 0.0 0.00 0.04 0.02 93 1012.3
20260904103028 80 219 0.0 0.0 0.00 0.04 0.02 93 1012.2
20260904101507 80 219 0.0 0.0 0.00 0.04 0.02 93 1012.0
20260904100049 80 219 0.0 0.0 0.00 0.04 0.02 93 1011.8
20260904094517 81 219 0.0 0.0 0.00 0.04 0.02 93 1011.7
20260904093059 81 219 0.0 0.0 0.00 0.04 0.02 92 1011.6
20260904091547 81 219 0.0 0.0 0.01 0.04 0.02 92 1011.7
20260904090017 81 219 0.0 0.0 0.02 0.04 0.02 91 1011.8
20260904084558 81 219 0.0 3.0 0.02 0.04 0.02 91 1011.8
20260904083029 82 175 1.0 5.0 0.02 0.04 0.02 90 1011.8
20260904081506 82 196 1.0 4.0 0.01 0.03 0.01 89 1011.8
20260904080042 83 214 3.0 8.0 0.00 0.02 0.00 88 1011.8
20260904074515 83 192 3.0 6.0 0.00 0.02 0.00 88 1011.8
20260904073101 83 196 3.0 7.0 0.00 0.02 0.00 88 1011.8
20260904071530 83 197 2.0 7.0 0.00 0.02 0.00 88 1011.9
20260904070112 83 193 2.0 4.0 0.00 0.02 0.00 88 1012.0
20260904064545 83 210 2.0 8.0 0.00 0.02 0.00 88 1012.0
20260904063022 83 209 4.0 10.0 0.00 0.02 0.00 87 1012.0
20260904061603 83 163 2.0 6.0 0.00 0.02 0.00 88 1012.0
20260904060033 83 167 1.0 9.0 0.00 0.02 0.00 88 1012.1
20260904054514 83 143 5.0 9.0 0.00 0.02 0.00 88 1012.1
20260904053051 83 154 5.0 9.0 0.00 0.02 0.00 88 1012.1
20260904051536 83 158 7.0 12.0 0.00 0.02 0.00 88 1012.0
20260904050101 83 145 6.0 12.0 0.00 0.02 0.00 88 1012.0
20260904044536 83 148 7.0 12.0 0.00 0.02 0.02 87 1012.1
20260904043009 83 149 6.0 11.0 0.00 0.02 0.02 86 1012.1
20260904041555 83 115 4.0 8.0 0.00 0.02 0.02 86 1012.2
20260904040035 83 157 3.0 10.0 0.00 0.02 0.02 86 1012.1
20260904034507 83 132 6.0 14.0 0.00 0.02 0.02 87 1012.1
20260904033046 83 132 6.0 11.0 0.00 0.02 0.02 87 1012.2
20260904031523 83 153 3.0 10.0 0.00 0.02 0.02 87 1012.2
20260904030108 83 141 3.0 7.0 0.00 0.02 0.02 86 1012.1
20260904024538 83 148 3.0 10.0 0.00 0.02 0.02 86 1012.0
20260904023008 83 158 3.0 11.0 0.00 0.02 0.02 86 1011.9
20260904021551 83 107 3.0 9.0 0.00 0.02 0.02 86 1011.8
20260904020022 83 134 2.0 7.0 0.00 0.02 0.02 86 1011.7
20260904014609 83 97 3.0 6.0 0.00 0.02 0.02 86 1011.5
20260904013037 83 156 1.0 5.0 0.00 0.02 0.02 86 1011.4
20260904011511 83 134 2.0 6.0 0.00 0.02 0.02 85 1011.3
20260904010113 83 126 2.0 6.0 0.00 0.02 0.02 84 1011.2
20260904004530 83 104 2.0 7.0 0.00 0.02 0.02 83 1011.1
20260904003002 83 103 2.0 7.0 0.00 0.02 0.02 83 1011.2
20260904001547 83 71 1.0 4.0 0.00 0.02 0.02 82 1011.3
20260904000023 83 51 0.0 0.0 0.00 0.02 0.02 83 1011.5
20260903234556 83 51 0.0 0.0 0.00 0.02 0.02 83 1011.5
20260903233029 83 51 0.0 3.0 0.00 0.02 0.02 82 1011.5
20260903231611 83 51 1.0 3.0 0.00 0.02 0.02 82 1011.4
20260903230038 83 51 1.0 4.0 0.00 0.02 0.02 82 1011.4
20260903224514 83 86 3.0 5.0 0.00 0.02 0.02 80 1011.3
20260903223055 83 102 2.0 4.0 0.00 0.02 0.02 79 1011.5
20260903221529 82 112 1.0 3.0 0.00 0.02 0.02 79 1011.7
20260903220003 82 112 0.0 5.0 0.00 0.02 0.02 79 1011.7
20260903214540 82 121 1.0 6.0 0.00 0.02 0.02 80 1012.2
20260903213016 82 160 4.0 8.0 0.00 0.02 0.02 79 1012.6
20260903211549 82 140 3.0 11.0 0.00 0.02 0.02 79 1012.6
20260903210021 84 44 2.0 8.0 0.00 0.02 0.02 80 1012.7
20260903204618 83 359 4.0 9.0 0.00 0.02 0.02 77 1012.7
20260903203036 83 65 4.0 12.0 0.00 0.02 0.02 78 1012.9
20260903201612 84 333 2.0 12.0 0.00 0.02 0.02 79 1012.3
20260903200049 84 1 6.0 13.0 0.00 0.02 0.02 79 1012.4
20260903194508 85 336 3.0 9.0 0.00 0.02 0.02 79 1012.5
20260903193054 84 331 5.0 10.0 0.00 0.02 0.02 79 1012.6
20260903191527 84 328 3.0 10.0 0.00 0.02 0.02 79 1012.7
20260903190109 84 333 3.0 8.0 0.00 0.02 0.02 79 1012.6
20260903184534 84 289 3.0 9.0 0.00 0.02 0.02 76 1012.9
20260903183003 85 301 6.0 12.0 0.00 0.02 0.02 72 1013.1
20260903181544 87 297 2.0 8.0 0.00 0.02 0.02 75 1013.0
20260903180015 89 283 2.0 6.0 0.00 0.02 0.02 75 1013.3
20260903174553 89 114 3.0 6.0 0.00 0.02 0.02 76 1013.5
20260903173022 89 68 3.0 9.0 0.00 0.02 0.02 75 1013.5